Change the Weather History Date:

Monday, April 21, 2014

  Actual Average (KCBG) Record (KCBG)
Temperature  
Mean Temperature 52 °F -  
Max Temperature 67 °F 60 °F 92 °F (1980)
Min Temperature 37 °F 34 °F 22 °F (1950)
Degree Days  
Heating Degree Days 13    
Growing Degree Days 2 (Base 50)    
Moisture  
Dew Point 35 °F    
Average Humidity 54    
Maximum Humidity 84    
Minimum Humidity 30    
Precipitation  
Precipitation 0.00 in - - ()
Sea Level Pressure  
Sea Level Pressure 29.95 in    
Wind  
Wind Speed 5 mph (NW)    
Max Wind Speed 18 mph    
Max Gust Speed 31 mph    
Visibility 10 miles    
Events Thunderstorm    
Averages and records for this station are not official NWS values.
T = Trace of Precipitation, MM = Missing Value Source: NWS Daily Summary

Daily Weather History Graph

Daily Weather History Graph

Search for Another Location

Airport or City:

Trip Planner

Search our weather history database for the weather conditions in past years. The results will help you decide how hot, cold, wet, or windy it might be!

Date:

Astronomy

Apr. 21, 2014 Rise Set
Actual Time 6:15 AM CDT 8:06 PM CDT
Civil Twilight 5:43 AM CDT 8:38 PM CDT
Nautical Twilight 5:05 AM CDT 9:17 PM CDT
Astronomical Twilight 4:22 AM CDT 9:59 PM CDT
Moon 1:41 AM CDT (4/21) 11:39 AM CDT (4/21)
Length of Visible Light 14h 54m
Length of Day
13h 50m
Waning Gibbous, 57% of the Moon is Illuminated
Apr 21
Waning Gibbous
Apr 22
Last Quarter
Apr 29
New
May 6
First Quarter
May 14
Full

Hourly Weather History & Observations

Time (CDT) Temp. Windchill Dew Point Humidity Pressure Visibility Wind Dir Wind Speed Gust Speed Precip Events Conditions
12:15 AM 42.8 °F - 35.4 °F 75% 29.94 in 10.0 mi Calm Calm - N/A   Scattered Clouds
12:35 AM 47.7 °F - 34.0 °F 59% 29.94 in 10.0 mi Calm Calm - N/A   Scattered Clouds
12:55 AM 42.6 °F - 33.3 °F 69% 29.94 in 10.0 mi Calm Calm - N/A   Scattered Clouds
1:15 AM 41.9 °F - 32.9 °F 70% 29.94 in 10.0 mi Calm Calm - N/A   Scattered Clouds
1:35 AM 42.8 °F - 37.0 °F 80% 29.94 in 10.0 mi Calm Calm - N/A   Mostly Cloudy
1:55 AM 42.8 °F - 36.3 °F 78% 29.93 in 10.0 mi Calm Calm - N/A   Mostly Cloudy
2:15 AM 44.6 °F 43.1 °F 34.3 °F 67% 29.92 in 10.0 mi ESE 3.5 mph - N/A   Scattered Clouds
2:35 AM 48.2 °F - 33.6 °F 57% 29.92 in 10.0 mi SE 4.6 mph - N/A   Scattered Clouds
2:55 AM 49.5 °F - 33.8 °F 55% 29.91 in 10.0 mi ESE 3.5 mph - N/A   Scattered Clouds
3:15 AM 50.0 °F - 36.3 °F 59% 29.90 in 10.0 mi SE 4.6 mph - N/A   Scattered Clouds
3:35 AM 49.1 °F - 37.0 °F 63% 29.89 in 10.0 mi Calm Calm - N/A   Scattered Clouds
3:55 AM 48.4 °F - 37.4 °F 66% 29.89 in 10.0 mi Calm Calm - N/A   Scattered Clouds
4:15 AM 46.9 °F - 37.2 °F 69% 29.89 in 10.0 mi Calm Calm - N/A   Scattered Clouds
4:35 AM 45.9 °F - 38.7 °F 76% 29.88 in 10.0 mi Calm Calm - N/A Thunderstorm Scattered Clouds
4:55 AM 44.1 °F - 37.4 °F 77% 29.88 in 10.0 mi Calm Calm - N/A   Scattered Clouds
5:15 AM 43.5 °F - 37.0 °F 78% 29.87 in 10.0 mi Calm Calm - N/A   Scattered Clouds
5:35 AM 43.9 °F 39.3 °F 39.2 °F 84% 29.92 in 10.0 mi NW 8.1 mph 20.7 mph N/A   Mostly Cloudy
5:55 AM 48.7 °F - 39.9 °F 72% 29.91 in 10.0 mi Calm Calm - N/A   Overcast
6:16 AM 48.0 °F - 39.2 °F 72% 29.91 in 10.0 mi Calm Calm - N/A Thunderstorm Overcast
6:35 AM 47.5 °F - 39.0 °F 72% 29.89 in 10.0 mi Calm Calm - N/A   Mostly Cloudy
6:55 AM 45.3 °F - 37.9 °F 75% 29.89 in 10.0 mi Calm Calm - N/A   Clear
7:15 AM 44.2 °F - 37.6 °F 77% 29.90 in 10.0 mi Calm Calm - N/A   Clear
7:35 AM 46.4 °F - 39.2 °F 76% 29.91 in 10.0 mi Calm Calm - N/A   Clear
7:56 AM 48.2 °F - 40.1 °F 74% 29.91 in 10.0 mi Calm Calm - N/A   Clear
8:15 AM 50.5 °F - 39.6 °F 66% 29.92 in 10.0 mi Calm Calm - N/A   Clear
8:35 AM 52.5 °F - 39.4 °F 61% 29.92 in 10.0 mi Calm Calm - N/A   Clear
8:55 AM 53.1 °F - 38.8 °F 59% 29.91 in 10.0 mi Calm Calm - N/A   Mostly Cloudy
9:15 AM 56.1 °F - 39.2 °F 53% 29.91 in 10.0 mi Calm Calm - N/A   Mostly Cloudy
9:35 AM 58.1 °F - 38.5 °F 48% 29.91 in 10.0 mi Calm Calm - N/A   Scattered Clouds
9:55 AM 60.6 °F - 38.7 °F 44% 29.90 in 10.0 mi WNW 3.5 mph - N/A   Clear
10:15 AM 63.7 °F - 37.8 °F 38% 29.90 in 10.0 mi WNW 5.8 mph - N/A   Clear
10:35 AM 65.3 °F - 35.6 °F 33% 29.90 in 10.0 mi WNW 12.7 mph 20.7 mph N/A   Clear
10:55 AM 65.5 °F - 32.9 °F 30% 29.91 in 10.0 mi WNW 11.5 mph 19.6 mph N/A   Clear
11:15 AM 66.4 °F - 34.0 °F 30% 29.91 in 10.0 mi West 13.8 mph 23.0 mph N/A   Clear
11:35 AM 67.1 °F - 34.3 °F 30% 29.91 in 10.0 mi West 15.0 mph 21.9 mph N/A   Clear
11:55 AM 66.4 °F - 34.7 °F 31% 29.91 in 10.0 mi WNW 17.3 mph 23.0 mph N/A   Clear
12:15 PM 64.4 °F - 33.4 °F 32% 29.91 in 10.0 mi NW 12.7 mph 23.0 mph N/A   Clear
12:35 PM 65.1 °F - 34.7 °F 32% 29.91 in 10.0 mi West 10.4 mph 20.7 mph N/A   Clear
12:55 PM 64.4 °F - 36.1 °F 35% 29.91 in 10.0 mi NW 15.0 mph 23.0 mph N/A   Clear
1:15 PM 63.5 °F - 37.2 °F 38% 29.92 in 10.0 mi NNW 13.8 mph 20.7 mph N/A   Clear
1:35 PM 63.3 °F - 37.6 °F 39% 29.92 in 10.0 mi NNW 10.4 mph 19.6 mph N/A   Clear
1:55 PM 62.4 °F - 37.4 °F 40% 29.92 in 10.0 mi NNW 13.8 mph 24.2 mph N/A   Clear
2:15 PM 62.6 °F - 37.9 °F 40% 29.93 in 10.0 mi NW 13.8 mph 23.0 mph N/A   Clear
2:35 PM 61.7 °F - 38.5 °F 42% 29.94 in 10.0 mi NW 18.4 mph 27.6 mph N/A   Clear
2:55 PM 60.4 °F - 38.1 °F 44% 29.95 in 10.0 mi NNW 16.1 mph 28.8 mph N/A   Clear
3:15 PM 58.8 °F - 33.8 °F 39% 29.96 in 10.0 mi NW 16.1 mph 31.1 mph N/A   Clear
3:35 PM 58.1 °F - 34.5 °F 41% 29.96 in 10.0 mi NW 13.8 mph 21.9 mph N/A   Clear
3:55 PM 57.2 °F - 34.9 °F 43% 29.98 in 10.0 mi NW 17.3 mph 25.3 mph N/A   Scattered Clouds
4:15 PM 56.8 °F - 35.2 °F 44% 29.98 in 10.0 mi WNW 15.0 mph 24.2 mph N/A   Clear
4:35 PM 55.9 °F - 34.0 °F 44% 29.98 in 10.0 mi NNW 13.8 mph 24.2 mph N/A   Clear
4:55 PM 56.1 °F - 32.7 °F 41% 29.98 in 10.0 mi NW 10.4 mph 25.3 mph N/A   Clear
5:15 PM 56.3 °F - 32.2 °F 40% 29.98 in 10.0 mi NW 12.7 mph 21.9 mph N/A   Clear
5:35 PM 55.6 °F - 32.0 °F 41% 29.98 in 10.0 mi NW 12.7 mph 21.9 mph N/A   Clear
5:55 PM 55.6 °F - 30.6 °F 39% 29.98 in 10.0 mi NW 15.0 mph 20.7 mph N/A   Clear
6:15 PM 55.0 °F - 30.0 °F 38% 29.98 in 10.0 mi NW 11.5 mph 20.7 mph N/A   Clear
6:35 PM 54.1 °F - 30.4 °F 40% 29.99 in 10.0 mi NW 11.5 mph 19.6 mph N/A   Clear
6:55 PM 53.6 °F - 31.3 °F 43% 29.99 in 10.0 mi NNW 10.4 mph 17.3 mph N/A   Scattered Clouds
7:15 PM 52.7 °F - 30.9 °F 43% 30.00 in 10.0 mi NNW 12.7 mph 19.6 mph N/A   Clear
7:35 PM 51.8 °F - 31.1 °F 45% 30.01 in 10.0 mi NNW 6.9 mph 18.4 mph N/A   Scattered Clouds
7:55 PM 50.0 °F - 31.6 °F 49% 30.02 in 10.0 mi NNW 11.5 mph 17.3 mph N/A   Scattered Clouds
8:15 PM 48.6 °F - 31.1 °F 51% 30.03 in 10.0 mi NNW 15.0 mph 21.9 mph N/A   Scattered Clouds
8:35 PM 47.1 °F - 30.2 °F 52% 30.04 in 10.0 mi NNW 9.2 mph 20.7 mph N/A   Scattered Clouds
8:55 PM 45.7 °F 40.6 °F 30.0 °F 54% 30.05 in 10.0 mi NNW 10.4 mph 16.1 mph N/A   Scattered Clouds
9:15 PM 45.0 °F 40.6 °F 30.2 °F 56% 30.06 in 10.0 mi NNW 8.1 mph - N/A   Scattered Clouds
9:35 PM 44.6 °F 39.2 °F 30.0 °F 57% 30.07 in 10.0 mi NNW 10.4 mph 17.3 mph N/A   Scattered Clouds
9:55 PM 43.7 °F 38.6 °F 30.2 °F 59% 30.07 in 10.0 mi North 9.2 mph - N/A   Scattered Clouds
10:15 PM 42.8 °F 39.3 °F 29.8 °F 60% 30.08 in 10.0 mi North 5.8 mph - N/A   Scattered Clouds
10:35 PM 41.9 °F 40.0 °F 29.3 °F 61% 30.08 in 10.0 mi NNW 3.5 mph - N/A   Scattered Clouds
10:55 PM 41.0 °F 39.0 °F 29.3 °F 63% 30.08 in 10.0 mi NNW 3.5 mph - N/A   Scattered Clouds
11:15 PM 39.6 °F - 29.1 °F 66% 30.08 in 10.0 mi Calm Calm - N/A   Scattered Clouds
11:36 PM 37.9 °F - 28.8 °F 70% 30.07 in 10.0 mi Calm Calm - N/A   Scattered Clouds
11:55 PM 38.1 °F - 29.1 °F 70% 30.07 in 10.0 mi Calm Calm - N/A   Scattered Clouds